Gressoney, Italy 16 day weather forecast

Slopes altitude range -1 m - -1m

Number of lifts: -1 Pistes: -1km

In some cases the lift and piste totals shown are for the ski domain (e.g. Three Valleys) rather than individual resort (e.g. Courchevel)

Overview

The 16 day weather forecast is fully updated 4 times every day.

    • Wed 26 JUN 2019
    • Wed 26
    • 25C 31C
    • Thu 27 JUN 2019
    • Thu 27
    • 25C 34C
    • Fri 28 JUN 2019
    • Fri 28
    • 25C 31C
    • Sat 29 JUN 2019
    • Sat 29
    • 23C 27C
    • Sun 30 JUN 2019
    • Sun 30
    • 23C 29C
    • Mon 01 JUL 2019
    • Mon 01
    • 24C 30C
    • Tue 02 JUL 2019
    • Tue 02
    • 23C 29C
    • Wed 03 JUL 2019
    • Wed 03
    • 21C 27C
    • Thu 04 JUL 2019
    • Thu 04
    • 12C 14C
    • Fri 05 JUL 2019
    • Fri 05
    • 14C 18C
    • Sat 06 JUL 2019
    • Sat 06
    • 13C 16C
    • Sun 07 JUL 2019
    • Sun 07
    • 9C 12C
    • Mon 08 JUL 2019
    • Mon 08
    • 15C 18C
    • Tue 09 JUL 2019
    • Tue 09
    • 15C 17C
    • Wed 10 JUL 2019
    • Wed 10
    • 14C 17C
    • Thu 11 JUL 2019
    • Thu 11
    • 14C 16C

Date:

Time Type 0°C level Temp Chill Snow Cloud Speed Gust Dir Press
3:00 4676m 22°C 22_4 0cm 0% 4mph 5mph 1025mB
6:00 4671m 21°C 21_1 0cm 0% 1mph 1mph 1026mB
9:00 4664m 25°C 25_4 0cm 0% 4mph 3mph 1025mB
12:00 4680m 31°C 31_5 0cm 0% 5mph 3mph 1024mB
15:00 4642m 32°C 32_4 0cm 0% 4mph 3mph 1023mB
18:00 4599m 32°C 32_4 0cm 33% 4mph 5mph 1024mB
21:00 4615m 22°C 22_9 0cm 99% 9mph 12mph 1026mB
0:00 4657m 22°C 22_6 0cm 100% 6mph 7mph 1025mB
3:00 4608m 22°C 22_5 0cm 43% 5mph 6mph 1024mB
6:00 4613m 22°C 22_3 0cm 21% 3mph 4mph 1024mB
9:00 4624m 25°C 25_4 0cm 0% 4mph 2mph 1022mB
12:00 4636m 34°C 34_3 0cm 0% 3mph 2mph 1021mB
15:00 4625m 36°C 36_4 0cm 0% 4mph 7mph 1019mB
18:00 4578m 36°C 36_5 0cm 0% 5mph 6mph 1018mB
21:00 4657m 27°C 27_9 0cm 0% 9mph 9mph 1020mB
0:00 4696m 26°C 26_8 0cm 0% 8mph 11mph 1019mB
3:00 4715m 24°C 24_7 0cm 0% 7mph 7mph 1019mB
6:00 4675m 22°C 22_3 0cm 0% 3mph 4mph 1018mB
9:00 4725m 25°C 25_6 0cm 0% 6mph 9mph 1018mB
12:00 4742m 31°C 31_6 0cm 0% 6mph 6mph 1016mB
15:00 4773m 31°C 31_5 0cm 7% 5mph 4mph 1015mB
18:00 4769m 31°C 31_4 0cm 4% 4mph 6mph 1016mB
21:00 4803m 23°C 23_2 0cm 20% 2mph 3mph 1018mB
0:00 4773m 22°C 22_4 0cm 59% 4mph 11mph 1019mB
3:00 4797m 21°C 21_5 0cm 93% 5mph 6mph 1019mB
6:00 4836m 20°C 20_2 0cm 79% 2mph 3mph 1019mB
9:00 4884m 23°C 23_5 0cm 17% 5mph 4mph 1019mB
12:00 4875m 27°C 27_6 0cm 19% 6mph 5mph 1018mB
15:00 4865m 28°C 28_4 0cm 9% 4mph 4mph 1017mB
18:00 4870m 28°C 28_3 0cm 5% 3mph 4mph 1018mB
21:00 4875m 21°C 21_3 0cm 0% 3mph 3mph 1020mB
0:00 4825m 21°C 21_3 0cm 3% 3mph 4mph 1021mB
3:00 4808m 20°C 20_3 0cm 10% 3mph 3mph 1020mB
6:00 4747m 19°C 19_1 0cm 12% 1mph 2mph 1021mB
9:00 4718m 23°C 23_4 0cm 0% 4mph 3mph 1020mB
12:00 4704m 29°C 29_5 0cm 1% 5mph 3mph 1019mB
15:00 4654m 30°C 30_4 0cm 0% 4mph 4mph 1018mB
18:00 4524m 30°C 30_3 0cm 0% 3mph 4mph 1019mB
21:00 4488m 22°C 22_3 0cm 1% 3mph 4mph 1021mB
0:00 4533m 22°C 22_3 0cm 1% 3mph 4mph 1021mB
3:00 4515m 21°C 21_3 0cm 33% 3mph 4mph 1020mB
6:00 4519m 21°C 21_1 0cm 50% 1mph 1mph 1020mB
9:00 4469m 24°C 24_4 0cm 0% 4mph 2mph 1019mB
12:00 4486m 30°C 30_5 0cm 6% 5mph 3mph 1018mB
15:00 4574m 31°C 31_6 0cm 33% 6mph 9mph 1016mB
18:00 4425m 31°C 31_3 0cm 51% 3mph 4mph 1017mB
21:00 4266m 20°C 20_11 0cm 88% 11mph 14mph 1019mB
0:00 4170m 19°C 19_6 0cm 94% 6mph 7mph 1019mB
3:00 4362m 18°C 18_1 0cm 98% 1mph 2mph 1017mB
6:00 4312m 18°C 18_2 0cm 86% 2mph 2mph 1017mB
9:00 4337m 23°C 23_3 0cm 31% 3mph 3mph 1016mB
12:00 4413m 29°C 29_4 0cm 39% 4mph 4mph 1015mB
15:00 4336m 30°C 30_4 0cm 94% 4mph 3mph 1015mB
18:00 4146m 30°C 30_11 0cm 97% 11mph 19mph 1016mB
21:00 4019m 19°C 19_6 0cm 100% 6mph 7mph 1017mB
0:00 4139m 19°C 19_3 0cm 92% 3mph 4mph 1017mB
3:00 4065m 17°C 17_4 0cm 0% 4mph 5mph 1017mB
6:00 4107m 17°C 17_0 0cm 0% 0mph 0mph 1017mB
9:00 4131m 21°C 21_5 0cm 0% 5mph 4mph 1017mB
12:00 4181m 27°C 27_4 0cm 26% 4mph 3mph 1016mB
15:00 4138m 14°C 14_4 0cm 97% 4mph 2mph 1016mB
18:00 4153m 14°C 14_1 0cm 99% 1mph 2mph 1017mB
21:00 4049m 8°C 8_2 0cm 90% 2mph 2mph 1018mB
0:00 4008m 7°C 7_3 0cm 95% 3mph 3mph 1019mB
3:00 4013m 6°C 6_2 0cm 98% 2mph 3mph 1018mB
6:00 4087m 6°C 6_1 0cm 62% 1mph 2mph 1018mB
9:00 4158m 12°C 12_4 0cm 7% 4mph 3mph 1018mB
12:00 4141m 14°C 14_5 0cm 44% 5mph 4mph 1017mB
15:00 4178m 15°C 15_5 0cm 60% 5mph 4mph 1017mB
18:00 4205m 15°C 15_2 0cm 47% 2mph 2mph 1017mB
21:00 4162m 9°C 9_4 0cm 42% 4mph 5mph 1018mB
0:00 4158m 8°C 8_3 0cm 21% 3mph 4mph 1019mB
3:00 4192m 7°C 7_4 0cm 67% 4mph 5mph 1018mB
6:00 4144m 7°C 7_3 0cm 54% 3mph 4mph 1018mB
9:00 4115m 14°C 14_3 0cm 70% 3mph 5mph 1018mB
12:00 4156m 18°C 18_2 0cm 39% 2mph 5mph 1017mB
15:00 4219m 18°C 18_2 0cm 60% 2mph 3mph 1016mB
18:00 4216m 18°C 18_1 0cm 52% 1mph 2mph 1017mB
21:00 4238m 11°C 11_7 0cm 67% 7mph 7mph 1019mB
0:00 4142m 9°C 9_6 0cm 69% 6mph 6mph 1019mB
Afternoon 0.104167mm 0.3125 3878m 16°C 16_5 0cm 4% 5mph 7mph 1018mB
Morning 0mm 0 4094m 4°C 4_4 0cm 0% 4mph 6mph 1021mB
Afternoon 0.0208333mm 0 4623m 12°C 12_7 0cm 46% 7mph 4mph 1020mB
Morning 0mm 0 4543m 5°C 5_2 0cm 54% 2mph 3mph 1020mB
Afternoon 0.104167mm 0.375 4477m 18°C 18_5 0cm 41% 5mph 3mph 1017mB
Morning 0.104167mm 0.375 4459m 7°C 7_2 0cm 75% 2mph 2mph 1018mB
Afternoon 0.4375mm 1.3125 4430m 17°C 17_2 0cm 6% 2mph 4mph 1017mB
Morning 0.354167mm 1 4264m 8°C 8_2 0cm 62% 2mph 3mph 1019mB
Afternoon 0.583333mm 1.8125 4246m 17°C 17_1 0cm 71% 1mph 4mph 1016mB
Morning 0.0625mm 0.1875 4109m 8°C 8_2 0cm 53% 2mph 3mph 1016mB
Afternoon 0.625mm 1.875 4228m 16°C 16_5 0cm 34% 5mph 3mph 1012mB
Morning 0.1875mm 0.3125 3990m 6°C 6_4 0cm 47% 4mph 5mph 1011mB

16 day outlook at a glance

Forecast issued: 6/26/2019 8:09:32 AM

Chat

Your comments and questions. In a resort? Let us know what it's like!


Characters left 250

For terms and conditions see Readers Comments on the Cookie and privacy policy page.